Find Starlink 31890

NORAD ID: 59785 Int'l Des: 2024-093 Owner: SPXS Country: US Constellation: starlink operational
LEOCIRCULAR

当前视图

正在加载3D地球...

About Starlink 31890

Starlink 31890 (NORAD 59785) is a starlink constellation satellite (v2 mini) launched May 18, 2024 by SPXS of US. It operates in LEO, CIRCULAR orbit with a mass of 730.00 kg.

即将过境

Passes for default location (London). Set your location on the main map for personalized predictions.

高度历史

Loading altitude history...

两行轨道根数

1 59785U 24093D 26236.26564546 -.00000318 00000-0 -20418-5 0 9993
2 59785 43.0033 339.0870 0001017 249.4104 110.6638 15.27578194128366
Epoch: Aug 24, 2026 • Age: 20 hours

当前状态

高度 482.6 km
远地点 / 近地点 N/A
速度 7.63 km/s
星下点 5.42°N, 35.46°W
发射日期 May 18, 2024
运行时间 2.2 years
类型 internet

技术详情

分类 Payload
质量 730.00 kg
干质量 700.00 kg
总质量 730.00 kg
长度 0.30 m
直径 4.10 m
跨度 29.00 m
形状 Box + pan
制造商 SPXS
平台类型 Starlink V2M
阶段状态 In Orbit
所有者/国家 SPXS/US

Most Searched